Tracking 19176 objects as of 26-May-2018
HD Live streaming from Space Station
objects crossing your sky now

CZ-4C DEB

Track CZ-4C DEB now!
10-day predictions


NORAD ID: 39214
Int'l Code: 2013-037G
Perigee: 662.9 km
Apogee: 683.8 km
Inclination: 98.0 °
Period: 98.1 minutes
Semi major axis: 7044 km
RCS: Unknown
Launch date: July 19, 2013
Source: People's Republic of China (PRC)
Launch site: Taiyaun Space Center, China (TSC)

Note: This is SATELLITE DEBRIS
aabbcc
Your satellite tracking list
Your tracking list is empty




NASA's NSSDC Master Catalog

Two Line Element Set (TLE):
1 39214U 13037G   18145.54683954 +.00000086 +00000-0 +23123-4 0  9995
2 39214 097.9970 150.0189 0014859 081.1530 279.1357 14.68399532259348
Source of the keplerian elements: AFSPC